Weather History for Ruston, LA

Change the Weather History Date:

Saturday, August 31, 2013

  Actual Average Record
Temperature  
Mean Temperature 84 °F -  
Max Temperature 96 °F 91 °F 104 °F (1954)
Min Temperature 72 °F 67 °F 49 °F (1986)
Cooling Degree Days 18    
Growing Degree Days 34 (Base 50)    
Moisture  
Dew Point 67 °F    
Average Humidity 60    
Maximum Humidity 100    
Minimum Humidity 32    
Precipitation  
Precipitation 0.00 in - - ()
Sea Level Pressure  
Sea Level Pressure 29.94 in    
Wind  
Wind Speed 6 mph (SSW)    
Max Wind Speed 9 mph    
Max Gust Speed 20 mph    
Visibility 10 miles    
Events      
Averages and records for this station are not official NWS values.
T = Trace of Precipitation, MM = Missing Value Source: NWS Daily Summary

Daily Weather History Graph

Daily Weather History Graph

Search for Another Location

Airport:

Trip Planner

Search our weather history database for the weather conditions in past years. The results will help you decide how hot, cold, wet, or windy it might be!

Date:

Astronomy

Aug. 31, 2013 Rise Set
Actual Time 6:44 AM CDT 7:35 PM CDT
Civil Twilight 6:19 AM CDT 8:00 PM CDT
Nautical Twilight 5:50 AM CDT 8:30 PM CDT
Astronomical Twilight 5:19 AM CDT 9:00 PM CDT
Moon 2:23 AM CDT 4:26 PM CDT
Length of Visible Light 13h 41m
Length of Day
12h 50m
Waning Crescent, 21% of the Moon is Illuminated
Aug 31
Waning Crescent
Sep 5
New
Sep 12
First Quarter
Sep 19
Full
Sep 26
Last Quarter

Hourly Weather History & Observations

Time (CDT) Temp. Heat Index Dew Point Humidity Pressure Visibility Wind Dir Wind Speed Gust Speed Precip Events Conditions
12:15 AM 77.9 °F - 67.5 °F 70% 29.96 in 10.0 mi South 6.9 mph - N/A   Clear
12:35 AM 77.0 °F - 68.0 °F 74% 29.96 in 10.0 mi South 5.8 mph - N/A   Clear
12:55 AM 77.4 °F - 68.0 °F 73% 29.96 in 10.0 mi South 6.9 mph - N/A   Clear
1:15 AM 77.9 °F - 67.6 °F 71% 29.96 in 10.0 mi South 9.2 mph - N/A   Clear
1:35 AM 77.2 °F - 67.8 °F 73% 29.96 in 10.0 mi South 8.1 mph - N/A   Clear
1:55 AM 77.0 °F - 67.8 °F 73% 29.96 in 10.0 mi South 6.9 mph - N/A   Clear
2:15 AM 76.6 °F - 67.5 °F 73% 29.96 in 10.0 mi SSW 8.1 mph - N/A   Clear
2:35 AM 77.4 °F - 67.3 °F 71% 29.96 in 10.0 mi South 8.1 mph - N/A   Clear
2:55 AM 77.2 °F - 67.5 °F 72% 29.96 in 10.0 mi SSW 6.9 mph - N/A   Clear
3:15 AM 76.6 °F - 68.0 °F 75% 29.96 in 10.0 mi SSW 6.9 mph - N/A   Clear
3:35 AM 76.1 °F - 68.2 °F 76% 29.96 in 10.0 mi SSW 5.8 mph - N/A   Clear
3:55 AM 76.1 °F - 68.4 °F 77% 29.96 in 10.0 mi SW 5.8 mph - N/A   Clear
4:15 AM 76.1 °F - 68.5 °F 77% 29.96 in 10.0 mi SW 4.6 mph - N/A   Clear
4:35 AM 75.7 °F - 68.9 °F 79% 29.96 in 10.0 mi SW 4.6 mph - N/A   Clear
4:55 AM 75.4 °F - 69.3 °F 81% 29.96 in 10.0 mi SW 4.6 mph - N/A   Clear
5:15 AM 74.7 °F - 70.0 °F 85% 29.96 in 10.0 mi Calm Calm - N/A   Clear
5:35 AM 74.5 °F - 70.9 °F 88% 29.96 in 10.0 mi SW 3.5 mph - N/A   Clear
5:55 AM 74.3 °F - 71.6 °F 91% 29.97 in 10.0 mi SSW 3.5 mph - N/A   Clear
6:15 AM 73.6 °F - 72.1 °F 95% 29.97 in 10.0 mi SSW 3.5 mph - N/A   Clear
6:35 AM 72.9 °F - 72.9 °F 100% 29.97 in 7.0 mi South 5.8 mph - N/A   Clear
6:55 AM 72.7 °F - 72.7 °F 100% 29.98 in 7.0 mi SSW 4.6 mph - N/A   Clear
7:15 AM 72.5 °F - 72.5 °F 100% 29.98 in 5.0 mi South 5.8 mph - N/A   Clear
7:35 AM 73.4 °F - 73.4 °F 100% 29.99 in 5.0 mi SW 4.6 mph - N/A   Clear
7:55 AM 74.8 °F - 72.7 °F 93% 29.99 in 7.0 mi SW 3.5 mph - N/A   Clear
8:15 AM 76.3 °F - 71.8 °F 86% 30.00 in 7.0 mi SW 4.6 mph - N/A   Clear
8:35 AM 77.9 °F - 71.8 °F 81% 30.00 in 10.0 mi SW 4.6 mph - N/A   Clear
8:55 AM 79.9 °F - 71.6 °F 76% 30.00 in 10.0 mi WSW 5.8 mph - N/A   Clear
9:15 AM 81.1 °F 84.7 °F 70.0 °F 69% 30.00 in 10.0 mi WSW 5.8 mph - N/A   Clear
9:35 AM 82.6 °F 85.9 °F 68.7 °F 63% 30.00 in 10.0 mi WSW 6.9 mph - N/A   Clear
9:55 AM 84.7 °F 86.3 °F 64.9 °F 51% 30.00 in 10.0 mi WSW 5.8 mph - N/A   Clear
10:15 AM 86.2 °F 87.9 °F 65.1 °F 49% 30.01 in 10.0 mi SW 6.9 mph - N/A   Clear
10:35 AM 86.4 °F 88.1 °F 64.9 °F 49% 30.00 in 10.0 mi West 4.6 mph - N/A   Clear
10:55 AM 88.7 °F 91.1 °F 66.0 °F 47% 30.00 in 10.0 mi SW 8.1 mph - N/A   Clear
11:15 AM 88.3 °F 91.2 °F 66.9 °F 49% 29.99 in 10.0 mi West 5.8 mph - N/A   Clear
11:35 AM 89.8 °F 93.3 °F 67.6 °F 48% 29.99 in 10.0 mi SW 5.8 mph - N/A   Clear
11:55 AM 90.7 °F 94.5 °F 67.6 °F 47% 29.98 in 10.0 mi South 5.8 mph - N/A   Clear
12:15 PM 91.4 °F 93.6 °F 65.5 °F 42% 29.98 in 10.0 mi South 5.8 mph - N/A   Clear
12:35 PM 91.2 °F 92.5 °F 63.9 °F 40% 29.98 in 10.0 mi SSW 4.6 mph 19.6 mph N/A   Scattered Clouds
12:55 PM 91.8 °F 93.8 °F 64.8 °F 41% 29.97 in 10.0 mi SSW 5.8 mph - N/A   Scattered Clouds
1:15 PM 93.2 °F 94.5 °F 63.1 °F 37% 29.96 in 10.0 mi West 3.5 mph - N/A   Scattered Clouds
1:35 PM 92.7 °F 93.6 °F 62.6 °F 37% 29.96 in 10.0 mi West 9.2 mph - N/A   Clear
1:55 PM 93.9 °F 94.8 °F 62.6 °F 35% 29.95 in 10.0 mi SSE 8.1 mph - N/A   Clear
2:15 PM 93.7 °F 94.5 °F 62.4 °F 35% 29.94 in 10.0 mi SW 5.8 mph - N/A   Scattered Clouds
2:35 PM 94.3 °F 95.3 °F 62.8 °F 35% 29.93 in 10.0 mi SSW 8.1 mph - N/A   Clear
2:55 PM 93.7 °F 94.5 °F 62.2 °F 35% 29.93 in 10.0 mi SW 3.5 mph 16.1 mph N/A   Clear
3:15 PM 94.1 °F 95.0 °F 62.2 °F 35% 29.92 in 10.0 mi WSW 5.8 mph - N/A   Clear
3:35 PM 94.6 °F 95.5 °F 61.9 °F 34% 29.91 in 10.0 mi WSW 6.9 mph - N/A   Clear
3:55 PM 95.0 °F 95.6 °F 61.9 °F 33% 29.90 in 10.0 mi SW 4.6 mph - N/A   Clear
4:15 PM 94.6 °F 95.1 °F 61.5 °F 33% 29.90 in 10.0 mi NW 5.8 mph - N/A   Clear
4:35 PM 95.4 °F 95.7 °F 61.3 °F 32% 29.89 in 10.0 mi Calm Calm - N/A   Clear
4:55 PM 95.2 °F 95.9 °F 61.7 °F 33% 29.89 in 10.0 mi West 3.5 mph - N/A   Clear
5:15 PM 95.7 °F 96.3 °F 61.5 °F 32% 29.88 in 10.0 mi South 3.5 mph - N/A   Clear
5:35 PM 95.9 °F 96.6 °F 61.5 °F 32% 29.88 in 10.0 mi South 5.8 mph - N/A   Clear
5:55 PM 95.0 °F 95.6 °F 62.1 °F 33% 29.88 in 10.0 mi SE 3.5 mph - N/A   Clear
6:15 PM 94.6 °F 95.5 °F 62.1 °F 34% 29.88 in 10.0 mi ESE 4.6 mph - N/A   Clear
6:35 PM 94.1 °F 95.0 °F 62.6 °F 35% 29.88 in 10.0 mi SSE 3.5 mph - N/A   Clear
6:55 PM 92.3 °F 95.1 °F 66.4 °F 42% 29.88 in 10.0 mi Calm Calm - N/A   Clear
7:15 PM 88.9 °F 94.2 °F 70.3 °F 54% 29.88 in 10.0 mi Calm Calm - N/A   Clear
7:35 PM 85.1 °F 91.1 °F 72.0 °F 65% 29.88 in 10.0 mi Calm Calm - N/A   Clear
7:55 PM 84.6 °F 89.7 °F 71.1 °F 64% 29.89 in 10.0 mi SSE 3.5 mph - N/A   Clear
8:15 PM 86.9 °F 89.9 °F 67.3 °F 52% 29.89 in 10.0 mi SE 6.9 mph - N/A   Clear
8:35 PM 86.0 °F 88.8 °F 67.3 °F 53% 29.89 in 10.0 mi SSE 6.9 mph - N/A   Clear
8:55 PM 84.9 °F 88.2 °F 68.2 °F 57% 29.90 in 10.0 mi SSE 5.8 mph - N/A   Clear
9:15 PM 83.1 °F 86.6 °F 68.9 °F 62% 29.91 in 10.0 mi SSE 5.8 mph - N/A   Clear
9:35 PM 82.9 °F 86.3 °F 68.5 °F 62% 29.91 in 10.0 mi SSE 5.8 mph - N/A   Clear
9:55 PM 83.1 °F 86.1 °F 68.0 °F 60% 29.91 in 10.0 mi Calm Calm - N/A   Clear
10:15 PM 82.6 °F 85.3 °F 67.5 °F 60% 29.91 in 10.0 mi Calm Calm - N/A   Clear
10:35 PM 81.9 °F 84.8 °F 68.0 °F 63% 29.92 in 10.0 mi SSE 6.9 mph - N/A   Clear
10:55 PM 80.8 °F 83.5 °F 68.2 °F 65% 29.92 in 10.0 mi SSE 6.9 mph - N/A   Clear
11:15 PM 80.8 °F 83.5 °F 68.0 °F 65% 29.92 in 10.0 mi SSE 8.1 mph - N/A   Clear
11:35 PM 80.4 °F 83.0 °F 67.6 °F 65% 29.92 in 10.0 mi SSE 9.2 mph - N/A   Clear
11:55 PM 79.9 °F - 67.5 °F 66% 29.91 in 10.0 mi South 8.1 mph - N/A   Clear